Wind_Speed
3 4 3 4 4 4 4 4 5 4 4 4 3 3 3 2 1 1 2 2 1 2 2 2 2 2 2 2 2 3 3 3 3 3 3 2 2 2 3 3 3 3 3
4 4 4 3 4 4 4 4 4 4 4 4 3 3 3 2 1 1 1 1 1 1 2 2 2 2 2 3 3 3 4 4 4 4 4 3 3 3 4 4 4 5 4
4 5 4 4 4 5 4 4 4 4 4 3 3 3 3 2 1 1 0 0 1 2 2 3 3 3 3 3 3 4 4 4 4 4 4 4 4 4 5 5 6 5 6
5 5 5 5 5 5 5 5 4 4 4 3 2 3 3 3 2 2 1 2 2 2 3 4 4 4 4 4 4 4 4 5 5 5 5 5 5 6 6 7 7 7 8
7 6 6 7 6 6 6 6 6 5 4 3 3 2 3 3 3 3 3 3 3 4 5 5 5 5 5 5 5 5 5 6 6 6 6 6 7 7 7 8 9 9 9
7 7 7 8 8 8 8 7 7 6 5 4 4 4 4 4 4 4 5 5 5 5 5 5 5 5 6 6 6 6 6 6 6 7 7 8 8 8 9 9 10 11 11
7 8 8 8 8 9 9 8 7 7 6 6 6 5 5 5 6 6 6 6 6 6 6 6 6 7 6 7 7 7 8 8 8 8 9 10 10 11 11 11 11 12 12
7 8 8 9 9 9 9 10 9 8 8 7 7 7 7 7 7 8 8 8 8 8 8 8 8 8 8 9 9 9 10 10 10 11 11 11 12 12 13 13 14 14 14
7 8 9 9 9 10 10 10 10 10 10 9 9 9 9 9 9 9 10 10 10 10 10 10 10 10 10 11 11 11 12 12 12 13 12 13 14 14 15 15 16 15 15
7 8 8 9 9 10 10 11 11 11 11 11 11 10 10 10 10 10 11 11 11 11 11 12 12 12 12 13 13 13 14 14 14 14 15 15 16 16 16 17 17 17 17
7 8 8 9 10 10 11 12 12 13 13 12 12 12 12 12 12 12 12 12 13 13 13 14 14 15 15 15 15 16 16 16 17 17 17 17 18 18 18 18 18 19 19
7 8 9 9 10 11 11 12 13 13 13 13 14 14 14 14 14 15 15 15 15 15 15 16 16 17 17 18 18 18 18 19 19 20 20 20 19 19 20 20 21 21 21
8 9 9 10 10 11 12 13 13 13 14 14 15 15 16 16 16 16 17 17 17 18 18 19 19 19 19 19 20 20 20 21 21 22 22 22 22 22 23 23 23 23 23
8 9 10 10 11 12 13 14 14 15 15 16 16 17 18 18 19 19 19 19 20 20 20 20 20 21 20 21 21 22 22 22 23 23 24 24 25 25 25 26 26 26 26
10 10 10 11 11 12 13 15 15 16 16 17 18 18 19 20 20 21 21 21 21 21 21 21 22 22 22 23 23 23 23 24 24 24 24 25 26 27 28 28 28 28 28
11 11 11 11 11 12 13 15 16 16 17 18 19 20 20 21 22 23 24 24 23 23 23 23 23 23 23 23 23 24 23 24 25 25 26 27 28 29 29 29 30 30 31
12 12 12 12 12 12 13 15 16 17 18 19 20 21 21 22 23 24 24 24 24 24 24 24 24 24 24 23 23 24 24 25 25 26 27 29 29 30 31 31 31 32 34
12 12 13 13 14 14 15 15 17 18 19 19 20 21 22 23 23 24 24 24 24 24 24 24 25 25 24 24 24 25 26 26 27 27 28 29 30 30 31 32 33 34 34
12 13 14 14 15 15 16 17 17 19 20 21 21 22 23 24 24 24 25 25 25 25 24 24 24 25 25 24 25 25 26 27 28 30 30 31 31 31 32 33 34 34 35
14 14 15 15 15 16 17 17 18 19 20 21 22 22 23 24 24 24 24 25 25 25 24 24 24 26 26 26 27 27 28 29 30 31 32 32 32 32 33 34 35 35 36
14 15 15 16 16 17 17 18 19 19 20 21 21 21 22 23 24 24 24 24 24 25 25 25 26 27 27 28 28 29 30 31 31 32 32 32 33 34 35 35 36 36 37
14 15 15 16 17 17 18 18 19 20 20 20 21 22 22 23 23 23 23 24 25 26 26 26 27 28 28 29 30 30 31 31 31 32 33 33 34 34 35 36 36 37 38
15 16 16 17 18 18 19 19 19 20 20 21 22 22 22 23 23 23 23 24 25 26 26 26 27 28 29 29 30 30 31 32 32 32 33 33 34 34 35 36 37 38 39
17 17 17 18 19 19 20 21 21 22 22 22 22 23 23 23 23 23 24 25 26 26 26 26 27 27 28 29 31 32 32 33 33 32 33 34 34 35 36 37 38 39 40
19 19 19 20 21 21 22 22 23 23 23 23 23 23 23 24 24 24 24 24 25 25 26 27 28 29 30 31 32 32 33 33 33 33 34 35 36 37 37 38 38 39 39
20 20 21 22 23 23 24 24 24 24 24 24 24 24 24 24 24 25 25 25 25 26 26 27 28 29 29 30 31 33 34 34 34 34 34 35 36 37 38 38 38 39 39
Wind_Direction
203 198 196 197 188 193 189 182 166 154 151 154 157 156 153 138 108 89 86 76 52 31 15 3 354 343 333 308 293 276 272 276 282 280 283 297 301 297 306 310 307 298 293
236 220 214 209 202 202 200 194 179 176 172 174 177 173 164 149 139 102 73 65 40 17 3 351 345 337 323 313 303 289 277 276 281 278 274 276 283 287 297 301 298 292 290
255 243 225 219 214 208 214 208 198 194 187 184 194 192 188 192 192 210 281 320 349 347 338 333 328 326 323 310 307 300 290 287 283 277 272 271 275 281 286 294 301 295 296
262 254 239 231 225 217 219 213 200 199 196 199 213 221 221 225 228 240 264 290 310 322 323 322 321 314 313 308 304 305 296 293 288 281 275 278 280 283 286 291 294 294 296
266 259 245 237 236 228 221 218 213 208 211 217 229 236 241 243 243 256 271 287 297 303 310 316 315 314 307 303 304 304 300 296 292 288 285 284 284 289 289 290 290 290 292
264 251 246 241 241 235 226 225 225 223 225 231 240 248 257 258 257 265 277 284 287 293 300 305 307 311 308 302 301 300 297 296 293 291 288 287 285 287 290 292 291 290 291
263 250 243 245 243 238 234 234 237 236 238 241 246 253 265 262 265 273 280 285 287 290 292 297 300 305 302 299 298 297 294 291 290 290 287 285 284 285 288 290 291 293 292
261 253 244 245 244 242 241 238 240 241 246 249 251 255 264 265 265 275 281 284 286 288 288 290 292 295 298 297 294 292 289 290 291 289 288 286 287 287 287 289 290 290 291
259 251 246 247 248 246 246 243 243 248 251 253 254 259 267 271 274 279 281 285 289 288 287 289 293 292 293 293 292 290 288 290 290 289 287 290 292 290 288 289 289 289 290
264 253 250 251 251 250 248 246 247 252 254 257 260 264 269 272 275 278 282 286 289 289 288 288 289 287 288 290 289 291 288 288 288 289 290 291 291 290 290 291 289 287 287
264 256 252 254 252 253 253 250 251 254 257 260 264 267 272 276 279 281 284 285 285 287 287 289 289 286 286 285 286 287 286 288 288 289 290 291 289 288 288 290 290 288 287
269 265 265 260 257 257 257 254 252 256 261 263 266 269 272 278 281 282 284 284 283 284 288 288 287 285 285 285 284 283 284 286 287 288 289 289 288 288 289 289 288 288 287
272 271 272 268 263 260 259 258 258 261 264 267 269 271 275 279 280 281 283 284 283 284 285 286 286 285 284 286 285 284 284 285 286 287 287 287 288 288 289 288 287 286 285
282 283 279 274 268 265 262 260 262 264 266 268 271 273 276 278 281 281 282 284 284 284 285 285 286 285 284 287 288 287 286 286 286 286 286 287 286 287 288 288 287 287 286
286 286 283 280 275 269 269 268 268 270 271 273 275 276 277 279 280 281 282 283 285 285 286 287 288 289 288 288 286 287 285 285 286 286 286 286 287 287 287 287 287 286 286
289 288 288 282 279 277 274 274 273 273 274 275 277 282 282 282 282 282 283 283 283 284 285 286 288 289 290 290 287 286 286 285 285 286 287 287 287 287 286 285 285 285 285
290 288 284 283 283 282 282 281 279 278 278 278 279 282 286 287 286 284 283 283 283 283 283 284 286 288 288 287 286 286 287 286 286 287 287 286 286 286 287 286 285 286 287
295 288 285 285 286 286 286 288 286 282 281 281 282 284 286 288 288 287 285 283 283 283 282 283 284 286 286 285 285 286 286 284 285 286 287 288 287 286 288 287 287 287 288
296 294 291 290 288 287 288 290 290 286 285 285 286 286 287 289 288 287 287 286 285 283 283 283 284 285 286 285 286 288 289 286 286 287 287 287 287 287 288 289 290 289 289
293 292 291 291 290 289 290 291 291 290 288 287 289 290 290 292 291 289 287 287 287 286 285 285 285 285 286 287 288 289 290 288 287 288 288 287 287 288 289 289 290 290 289
295 293 292 292 291 291 293 293 293 292 292 292 293 295 296 295 295 292 288 287 288 287 286 285 287 287 287 289 289 290 291 290 289 290 291 290 290 290 289 290 290 290 291
301 299 298 297 297 296 296 296 295 294 294 294 295 295 295 295 295 294 290 289 289 289 287 286 287 287 289 289 289 291 293 293 292 292 291 290 290 291 291 293 293 293 292
302 299 298 298 299 299 298 297 297 296 296 297 296 296 295 295 295 294 291 290 291 291 290 289 289 288 288 290 291 293 295 296 295 293 292 291 291 291 292 293 293 293 293
305 304 302 301 301 302 302 299 297 296 296 297 296 295 295 296 297 296 293 292 292 292 290 289 290 289 290 290 292 294 296 297 295 293 293 292 292 292 293 295 295 295 296
303 301 300 301 301 301 300 298 296 296 296 297 297 295 294 295 296 297 296 296 295 293 292 292 291 292 292 292 293 295 296 298 296 294 293 293 293 294 294 295 295 296 297
303 302 302 301 301 300 300 298 298 298 298 298 296 295 294 294 295 296 295 296 296 295 295 295 294 293 294 294 294 295 296 296 296 296 295 295 295 295 295 296 297 298 298
Height
5903 5904 5904 5905 5906 5907 5908 5908 5909 5910 5910 5911 5912 5912 5913 5913 5914 5914 5914 5914 5914 5914 5914 5914 5914 5914 5914 5913 5913 5913 5913 5913 5913 5913 5912 5912 5912 5911 5911 5911 5911 5910 5910
5903 5904 5904 5905 5906 5907 5907 5908 5909 5910 5910 5911 5912 5912 5913 5913 5914 5914 5914 5914 5914 5914 5914 5914 5914 5913 5913 5913 5913 5912 5912 5912 5912 5912 5912 5911 5911 5911 5911 5910 5910 5909 5909
5903 5904 5904 5905 5906 5906 5907 5908 5909 5910 5910 5911 5912 5912 5913 5913 5914 5914 5914 5914 5914 5914 5914 5913 5913 5913 5913 5912 5912 5912 5912 5911 5911 5911 5911 5910 5910 5910 5910 5909 5909 5909 5908
5903 5903 5904 5904 5905 5906 5907 5908 5909 5910 5910 5911 5912 5912 5913 5913 5914 5914 5914 5914 5914 5913 5913 5913 5913 5912 5912 5912 5911 5911 5911 5911 5910 5910 5910 5910 5909 5909 5909 5908 5908 5907 5907
5902 5902 5903 5904 5905 5906 5907 5908 5909 5909 5910 5911 5911 5912 5912 5913 5913 5913 5913 5913 5913 5913 5913 5912 5912 5912 5911 5911 5911 5910 5910 5910 5909 5909 5909 5908 5908 5908 5907 5907 5906 5906 5905
5900 5901 5902 5903 5904 5905 5906 5907 5908 5909 5909 5910 5910 5911 5911 5912 5912 5912 5912 5912 5912 5912 5912 5911 5911 5910 5910 5910 5909 5909 5909 5908 5908 5908 5907 5907 5906 5906 5905 5905 5904 5904 5903
5899 5900 5901 5902 5903 5904 5905 5906 5907 5908 5908 5909 5910 5910 5910 5910 5911 5911 5911 5911 5911 5910 5910 5910 5910 5909 5909 5908 5908 5908 5907 5907 5906 5906 5905 5905 5904 5904 5903 5902 5902 5901 5900
5897 5899 5900 5901 5902 5903 5904 5905 5906 5907 5907 5908 5908 5909 5909 5910 5909 5910 5909 5909 5909 5909 5908 5908 5908 5908 5907 5906 5906 5906 5905 5905 5904 5903 5903 5902 5902 5901 5900 5900 5899 5898 5897
5896 5897 5898 5899 5900 5901 5902 5903 5904 5905 5906 5906 5907 5907 5907 5907 5907 5908 5907 5907 5907 5907 5906 5906 5906 5905 5905 5904 5904 5903 5903 5902 5901 5901 5900 5900 5899 5898 5897 5896 5895 5894 5894
5895 5896 5897 5898 5899 5899 5900 5901 5902 5903 5904 5904 5904 5905 5905 5905 5905 5905 5905 5905 5904 5904 5904 5904 5903 5902 5902 5902 5901 5900 5900 5899 5898 5898 5897 5896 5895 5894 5893 5892 5891 5891 5890
5893 5894 5895 5896 5897 5897 5898 5899 5900 5900 5901 5902 5902 5902 5902 5903 5903 5903 5902 5902 5902 5901 5901 5901 5900 5898 5898 5898 5897 5897 5896 5895 5895 5894 5893 5892 5892 5891 5889 5888 5887 5886 5885
5892 5893 5893 5894 5894 5895 5896 5896 5897 5898 5898 5899 5899 5899 5899 5899 5899 5899 5899 5899 5898 5898 5897 5897 5896 5896 5895 5894 5893 5892 5891 5891 5890 5890 5889 5888 5887 5886 5885 5884 5882 5881 5880
5891 5891 5891 5891 5892 5892 5893 5894 5894 5895 5895 5896 5896 5896 5896 5896 5895 5895 5895 5895 5894 5894 5893 5892 5892 5891 5890 5890 5888 5888 5887 5886 5885 5885 5884 5883 5882 5881 5880 5879 5877 5876 5875
5889 5889 5889 5889 5889 5889 5890 5890 5891 5891 5892 5892 5892 5892 5892 5892 5891 5891 5891 5891 5890 5889 5888 5887 5886 5885 5884 5884 5883 5882 5882 5881 5880 5879 5878 5877 5876 5875 5874 5873 5871 5870 5869
5887 5887 5887 5887 5887 5887 5887 5887 5888 5888 5888 5888 5888 5888 5888 5887 5887 5886 5886 5885 5885 5884 5883 5882 5881 5880 5878 5878 5877 5876 5876 5875 5874 5873 5872 5871 5870 5869 5867 5866 5864 5863 5862
5885 5884 5884 5884 5884 5884 5884 5884 5884 5884 5885 5885 5884 5884 5883 5882 5882 5881 5880 5880 5879 5879 5878 5877 5876 5875 5873 5872 5872 5870 5870 5869 5868 5866 5865 5864 5862 5861 5860 5858 5857 5855 5854
5882 5882 5882 5882 5882 5882 5881 5881 5881 5880 5880 5880 5880 5879 5879 5877 5876 5875 5874 5874 5873 5872 5872 5871 5870 5869 5868 5867 5865 5864 5863 5862 5861 5859 5858 5856 5855 5853 5852 5850 5849 5847 5845
5880 5879 5879 5879 5879 5878 5878 5877 5877 5876 5876 5875 5875 5874 5873 5872 5871 5870 5868 5868 5867 5866 5865 5865 5863 5862 5862 5860 5859 5858 5857 5855 5854 5852 5850 5849 5847 5845 5844 5842 5840 5838 5836
5877 5876 5876 5876 5875 5875 5875 5874 5873 5872 5871 5871 5870 5869 5868 5866 5865 5864 5863 5862 5861 5860 5859 5858 5857 5856 5855 5854 5853 5851 5850 5848 5846 5844 5843 5841 5839 5837 5835 5833 5831 5829 5826
5874 5874 5873 5872 5872 5871 5871 5870 5869 5868 5867 5866 5864 5863 5862 5860 5859 5858 5857 5855 5854 5853 5852 5851 5851 5849 5848 5847 5845 5844 5842 5840 5838 5836 5834 5832 5831 5828 5826 5824 5822 5819 5817
5871 5871 5870 5869 5868 5867 5866 5865 5864 5863 5862 5861 5859 5858 5856 5855 5853 5852 5850 5849 5848 5847 5845 5845 5844 5842 5841 5839 5838 5836 5834 5832 5830 5828 5826 5824 5822 5819 5817 5814 5812 5809 5806
5868 5867 5866 5865 5864 5863 5862 5861 5860 5858 5857 5856 5854 5853 5851 5850 5848 5846 5845 5843 5842 5840 5839 5838 5837 5835 5834 5832 5830 5828 5826 5824 5822 5820 5817 5815 5812 5810 5807 5805 5802 5799 5796
5865 5864 5863 5862 5861 5859 5858 5856 5855 5854 5852 5851 5849 5848 5846 5844 5842 5840 5839 5837 5835 5834 5833 5831 5830 5828 5826 5825 5823 5820 5818 5815 5813 5810 5808 5805 5803 5801 5798 5795 5792 5788 5785
5862 5860 5859 5858 5857 5855 5853 5852 5850 5849 5847 5846 5844 5842 5841 5839 5837 5835 5833 5831 5829 5827 5826 5824 5823 5821 5819 5817 5815 5813 5810 5807 5804 5801 5799 5796 5794 5791 5788 5784 5781 5777 5773
5858 5857 5855 5854 5852 5851 5849 5847 5845 5844 5842 5840 5839 5837 5835 5833 5831 5829 5827 5825 5823 5821 5819 5818 5816 5814 5812 5809 5807 5804 5802 5799 5795 5792 5789 5787 5784 5781 5778 5774 5770 5767 5763
5854 5852 5851 5849 5848 5846 5844 5842 5840 5838 5836 5834 5832 5831 5829 5827 5825 5823 5821 5819 5817 5815 5813 5811 5809 5806 5804 5801 5799 5796 5793 5790 5787 5783 5779 5777 5774 5771 5767 5764 5760 5756 5752